Location: *
(60.1759°S, 155.0663°W)
Time: 04:55:12
(UTC+00:00)

Cosmos 1812 - Pass Details

Date: 17 September 2019
Orbit: 516 x 523 km, 82.5° (Epoch: 19 October)

Event Time Altitude Azimuth Distance (km) Brightness Sun altitude
Rises 12:27:59 0° 192° (SSW) 2,704 6.9 -26.7°
Reaches altitude 10° 12:30:17 10° 183° (S) 1,809 6.0 -26.5°
Maximum altitude 12:33:58 36° 115° (ESE) 874 4.2 -26.2°
Enters shadow 12:35:03 30° 80° (E) 986 4.3 -26.2°
